This is the latest recevied weather packets stored in our database for station/object N1UNH. If no packets are shown the sender has not sent any weather packets the latest 10 day(s).
| Time | Temp. | Humidity | Pressure | Rain* | Wind** | Luminosity | Snow |
|---|---|---|---|---|---|---|---|
| 1777415740 | 13.33° C | 27% | 1025.3 hPa | 0 mm | - | 47 W/m² | - |
| 1777415437 | 13.33° C | 30% | 1025.3 hPa | 0 mm | - | 49 W/m² | - |
| 1777415131 | 13.89° C | 31% | 1025.6 hPa | 0 mm | - | 50 W/m² | - |
| 1777414827 | 13.89° C | 29% | 1025.7 hPa | 0 mm | - | 53 W/m² | - |
| 1777414522 | 13.89° C | 32% | 1025.8 hPa | 0 mm | - | 60 W/m² | - |
| 1777414221 | 14.44° C | 29% | 1025.7 hPa | 0 mm | - | 68 W/m² | - |
| 1777413917 | 15° C | 31% | 1025.5 hPa | 0 mm | - | 79 W/m² | - |
| 1777413612 | 15° C | 29% | 1025.6 hPa | 0 mm | - | 91 W/m² | - |
| 1777413309 | 15° C | 32% | 1025.6 hPa | 0 mm | - | 102 W/m² | - |
| 1777413004 | 15° C | 32% | 1025.8 hPa | 0 mm | - | 107 W/m² | - |
| 1777412703 | 15.56° C | 31% | 1025.6 hPa | 0 mm | - | 108 W/m² | - |
| 1777412402 | 15.56° C | 37% | 1025.9 hPa | 0 mm | - | 109 W/m² | - |
| 1777412096 | 15.56° C | 36% | 1025.8 hPa | 0 mm | - | 113 W/m² | - |
| 1777411791 | 16.11° C | 37% | 1025.8 hPa | 0 mm | - | 117 W/m² | - |
| 1777411490 | 15.56° C | 35% | 1025.7 hPa | 0 mm | - | 129 W/m² | - |
| 1777411190 | 16.11° C | 37% | 1025.9 hPa | 0 mm | - | 132 W/m² | - |
| 1777410885 | 16.11° C | 37% | 1025.8 hPa | 0 mm | - | 154 W/m² | - |
| 1777410585 | 16.67° C | 38% | 1025.8 hPa | 0 mm | - | 146 W/m² | - |
| 1777410285 | 17.22° C | 36% | 1025.8 hPa | 0 mm | - | 168 W/m² | - |
| 1777409980 | 17.22° C | 36% | 1025.8 hPa | 0 mm | - | 192 W/m² | - |
| 1777409674 | 17.78° C | 36% | 1025.8 hPa | 0 mm | - | 177 W/m² | - |
| 1777409371 | 18.33° C | 35% | 1026 hPa | 0 mm | - | 228 W/m² | - |
| 1777409067 | 18.33° C | 34% | 1025.8 hPa | 0 mm | - | 248 W/m² | - |
| 1777408764 | 18.33° C | 34% | 1025.8 hPa | 0 mm | - | 260 W/m² | - |
| 1777408460 | 18.33° C | 34% | 1025.6 hPa | 0 mm | - | 315 W/m² | - |
* Rain latest hour (hover to see other rain measurements)
** Current wind speed in m/s (hover to see current wind gust speed)